When you browse on this site, cookies collect data to enhance your experience and personalize the content and advertising you see.
Visit our Privacy Policy to learn more. By continuing to use the site, you agree to this use of cookies and data.
  • en France
  • Liste des pays
  • À 7 jours
  • Température de l'eau
  • Carte météo
  • Widgets météo
  • user-avatar
    Se connecter

    Météo par heure à Wilmette

    Ce jour, 26 Mai, Mardi

    Heure Température Précipitation Vent Pression Humidité
    00:00 +25°C° 0.2 mm 3 m/s 745 mmHg 71%
    01:00 +25°C° 0 mm 3 m/s 745 mmHg 73%
    02:00 +24°C° 0 mm 2 m/s 744 mmHg 75%
    03:00 +24°C° 0 mm 2 m/s 744 mmHg 78%
    04:00 +24°C° 0.1 mm 2 m/s 744 mmHg 77%
    05:00 +24°C° 0.1 mm 3 m/s 745 mmHg 76%
    06:00 +24°C° 0.1 mm 3 m/s 745 mmHg 75%
    07:00 +25°C° 0.2 mm 3 m/s 745 mmHg 69%
    08:00 +27°C° 0.2 mm 4 m/s 745 mmHg 63%
    09:00 +28°C° 0.2 mm 4 m/s 745 mmHg 57%
    10:00 +29°C° 0.1 mm 4 m/s 745 mmHg 53%
    11:00 +30°C° 0.1 mm 5 m/s 745 mmHg 50%
    12:00 +32°C° 0.1 mm 5 m/s 745 mmHg 47%
    13:00 +32°C° 0.2 mm 5 m/s 744 mmHg 47%
    14:00 +32°C° 0.2 mm 5 m/s 744 mmHg 47%
    15:00 +32°C° 0.2 mm 6 m/s 744 mmHg 47%
    16:00 +32°C° 0.4 mm 6 m/s 744 mmHg 48%
    17:00 +30°C° 0.4 mm 6 m/s 744 mmHg 49%
    18:00 +30°C° 0.4 mm 6 m/s 744 mmHg 50%
    19:00 +29°C° 0.1 mm 5 m/s 744 mmHg 54%
    20:00 +28°C° 0.1 mm 5 m/s 744 mmHg 58%
    21:00 +27°C° 0.1 mm 5 m/s 744 mmHg 63%
    22:00 +27°C° 0.3 mm 4 m/s 744 mmHg 64%
    23:00 +26°C° 0.3 mm 4 m/s 744 mmHg 66%

    Demain, 27 Mai, Mercredi

    Heure Température Précipitation Vent Pression Humidité
    00:00 +26°C° 0.3 mm 4 m/s 744 mmHg 67%
    01:00 +25°C° 0 mm 3 m/s 744 mmHg 69%
    02:00 +25°C° 0 mm 3 m/s 744 mmHg 71%
    03:00 +24°C° 0 mm 3 m/s 744 mmHg 72%
    04:00 +24°C° 0 mm 3 m/s 745 mmHg 73%
    05:00 +24°C° 0 mm 3 m/s 745 mmHg 73%
    06:00 +24°C° 0 mm 2 m/s 745 mmHg 73%
    07:00 +25°C° 0 mm 2 m/s 745 mmHg 69%
    08:00 +25°C° 0 mm 2 m/s 745 mmHg 65%
    09:00 +26°C° 0 mm 2 m/s 745 mmHg 61%
    10:00 +27°C° 0 mm 3 m/s 745 mmHg 58%
    11:00 +27°C° 0 mm 3 m/s 745 mmHg 55%
    12:00 +28°C° 0 mm 4 m/s 745 mmHg 51%
    13:00 +28°C° 0.2 mm 4 m/s 744 mmHg 52%
    14:00 +28°C° 0.2 mm 4 m/s 744 mmHg 52%
    15:00 +28°C° 0.2 mm 4 m/s 744 mmHg 52%
    16:00 +28°C° 0.1 mm 4 m/s 744 mmHg 54%
    17:00 +27°C° 0.1 mm 4 m/s 744 mmHg 57%
    18:00 +26°C° 0.1 mm 4 m/s 744 mmHg 60%
    19:00 +26°C° 0.3 mm 4 m/s 744 mmHg 62%
    20:00 +25°C° 0.3 mm 3 m/s 744 mmHg 63%
    21:00 +25°C° 0.3 mm 3 m/s 744 mmHg 65%
    22:00 +25°C° 0 mm 2 m/s 744 mmHg 67%
    23:00 +24°C° 0 mm 2 m/s 744 mmHg 68%

    Après-demain, 28 Mai, Jeudi

    Heure Température Précipitation Vent Pression Humidité
    00:00 +24°C° 0 mm 2 m/s 744 mmHg 70%
    01:00 +24°C° 0 mm 2 m/s 743 mmHg 72%
    02:00 +23°C° 0 mm 2 m/s 743 mmHg 75%
    03:00 +23°C° 0 mm 2 m/s 743 mmHg 77%
    04:00 +23°C° 0 mm 2 m/s 743 mmHg 77%
    05:00 +23°C° 0 mm 2 m/s 743 mmHg 77%
    06:00 +23°C° 0 mm 2 m/s 743 mmHg 77%
    07:00 +24°C° 0 mm 3 m/s 743 mmHg 72%
    08:00 +25°C° 0 mm 3 m/s 743 mmHg 67%
    09:00 +26°C° 0 mm 3 m/s 743 mmHg 62%
    10:00 +26°C° 0.2 mm 3 m/s 743 mmHg 62%
    11:00 +27°C° 0.2 mm 4 m/s 742 mmHg 62%
    12:00 +27°C° 0.2 mm 4 m/s 742 mmHg 63%
    13:00 +27°C° 0.1 mm 4 m/s 742 mmHg 61%
    14:00 +27°C° 0.1 mm 5 m/s 741 mmHg 59%
    15:00 +27°C° 0.1 mm 5 m/s 741 mmHg 57%
    16:00 +27°C° 0 mm 5 m/s 741 mmHg 59%
    17:00 +26°C° 0 mm 5 m/s 741 mmHg 61%
    18:00 +26°C° 0 mm 5 m/s 741 mmHg 63%
    19:00 +25°C° 0 mm 5 m/s 741 mmHg 67%
    20:00 +23°C° 0 mm 5 m/s 742 mmHg 70%
    21:00 +22°C° 0 mm 5 m/s 742 mmHg 74%
    22:00 +21°C° 0 mm 4 m/s 742 mmHg 77%
    23:00 +21°C° 0 mm 4 m/s 742 mmHg 80%

    29 Mai, Vendredi

    Heure Température Précipitation Vent Pression Humidité
    00:00 +20°C° 0 mm 4 m/s 742 mmHg 83%
    01:00 +20°C° 0.3 mm 4 m/s 742 mmHg 83%
    02:00 +20°C° 0.3 mm 4 m/s 742 mmHg 83%
    03:00 +20°C° 0.3 mm 4 m/s 742 mmHg 83%
    04:00 +19°C° 0.1 mm 4 m/s 743 mmHg 81%
    05:00 +19°C° 0.1 mm 3 m/s 743 mmHg 80%
    06:00 +19°C° 0.1 mm 3 m/s 744 mmHg 78%
    07:00 +20°C° 0 mm 3 m/s 744 mmHg 69%
    08:00 +21°C° 0 mm 3 m/s 745 mmHg 61%
    09:00 +22°C° 0 mm 3 m/s 745 mmHg 52%
    10:00 +22°C° 0 mm 4 m/s 745 mmHg 49%
    11:00 +23°C° 0 mm 4 m/s 745 mmHg 46%
    12:00 +23°C° 0 mm 4 m/s 745 mmHg 43%
    13:00 +23°C° 0 mm 4 m/s 745 mmHg 45%
    14:00 +23°C° 0 mm 4 m/s 745 mmHg 47%
    15:00 +23°C° 0 mm 4 m/s 745 mmHg 49%
    16:00 +22°C° 0 mm 4 m/s 746 mmHg 51%
    17:00 +21°C° 0 mm 4 m/s 746 mmHg 53%
    18:00 +20°C° 0 mm 4 m/s 746 mmHg 55%
    19:00 +19°C° 0 mm 4 m/s 747 mmHg 56%
    20:00 +17°C° 0 mm 5 m/s 747 mmHg 58%
    21:00 +16°C° 0 mm 5 m/s 748 mmHg 59%
    22:00 +15°C° 0 mm 5 m/s 748 mmHg 61%
    23:00 +15°C° 0 mm 5 m/s 748 mmHg 63%

    30 Mai, Samedi

    Heure Température Précipitation Vent Pression Humidité
    00:00 +14°C° 0 mm 4 m/s 748 mmHg 64%
    01:00 +14°C° 0 mm 4 m/s 748 mmHg 64%
    02:00 +13°C° 0 mm 4 m/s 748 mmHg 63%
    03:00 +13°C° 0 mm 4 m/s 748 mmHg 62%
    04:00 +13°C° 0 mm 4 m/s 749 mmHg 63%
    05:00 +13°C° 0 mm 3 m/s 749 mmHg 63%
    06:00 +13°C° 0 mm 3 m/s 750 mmHg 64%
    07:00 +14°C° 0 mm 3 m/s 750 mmHg 60%
    08:00 +16°C° 0 mm 3 m/s 750 mmHg 57%
    09:00 +16°C° 0 mm 3 m/s 750 mmHg 53%
    10:00 +17°C° 0 mm 3 m/s 750 mmHg 52%
    11:00 +17°C° 0 mm 3 m/s 750 mmHg 51%
    12:00 +17°C° 0 mm 3 m/s 750 mmHg 49%
    13:00 +17°C° 0 mm 4 m/s 750 mmHg 50%
    14:00 +17°C° 0 mm 4 m/s 750 mmHg 51%
    15:00 +17°C° 0 mm 4 m/s 750 mmHg 52%
    16:00 +15°C° 0 mm 4 m/s 750 mmHg 53%
    17:00 +15°C° 0 mm 4 m/s 749 mmHg 54%
    18:00 +14°C° 0 mm 4 m/s 749 mmHg 55%
    19:00 +14°C° 0 mm 3 m/s 750 mmHg 57%
    20:00 +13°C° 0 mm 3 m/s 750 mmHg 58%
    21:00 +13°C° 0 mm 2 m/s 751 mmHg 60%
    22:00 +13°C° 0 mm 2 m/s 751 mmHg 61%
    23:00 +13°C° 0 mm 2 m/s 751 mmHg 62%

    31 Mai, Dimanche

    Heure Température Précipitation Vent Pression Humidité
    00:00 +13°C° 0 mm 1 m/s 751 mmHg 63%
    01:00 +13°C° 0 mm 1 m/s 751 mmHg 63%
    02:00 +13°C° 0 mm 1 m/s 751 mmHg 63%
    03:00 +12°C° 0 mm 0 m/s 752 mmHg 63%
    04:00 +12°C° 0 mm 0 m/s 752 mmHg 61%
    05:00 +12°C° 0 mm 0 m/s 752 mmHg 59%
    06:00 +13°C° 0 mm 0 m/s 753 mmHg 57%
    07:00 +14°C° 0 mm 0 m/s 753 mmHg 53%
    08:00 +16°C° 0 mm 0 m/s 753 mmHg 49%
    09:00 +19°C° 0 mm 1 m/s 753 mmHg 44%
    10:00 +20°C° 0 mm 1 m/s 753 mmHg 42%
    11:00 +19°C° 0 mm 2 m/s 753 mmHg 40%
    12:00 +20°C° 0 mm 3 m/s 753 mmHg 38%
    13:00 +20°C° 0 mm 2 m/s 752 mmHg 37%
    14:00 +20°C° 0 mm 2 m/s 752 mmHg 36%
    15:00 +20°C° 0 mm 2 m/s 752 mmHg 35%
    16:00 +20°C° 0 mm 2 m/s 752 mmHg 36%
    17:00 +19°C° 0 mm 2 m/s 752 mmHg 37%
    18:00 +19°C° 0 mm 2 m/s 752 mmHg 38%
    19:00 +18°C° 0 mm 2 m/s 752 mmHg 38%
    20:00 +18°C° 0 mm 2 m/s 752 mmHg 38%
    21:00 +17°C° 0 mm 2 m/s 752 mmHg 38%
    22:00 +17°C° 0 mm 2 m/s 752 mmHg 39%
    23:00 +16°C° 0 mm 2 m/s 752 mmHg 39%
    Voir plus